Spencer, IA

11:29 PM CDT on August 30, 2016 (GMT -0500)
Spencer Municipal

Weather History for KSPW - March, 2014

Change the Weather History Date:

Thursday, March 27, 2014

  Actual Average Record
Temperature  
Mean Temperature 38 °F -  
Max Temperature 44 °F 50 °F 76 °F (1978)
Min Temperature 32 °F 27 °F -6 °F (1970)
Degree Days  
Heating Degree Days 27    
Moisture  
Dew Point 36 °F    
Average Humidity 90    
Maximum Humidity 96    
Minimum Humidity 78    
Precipitation  
Precipitation 0.31 in - - ()
Sea Level Pressure  
Sea Level Pressure 29.48 in    
Wind  
Wind Speed 18 mph (ESE)    
Max Wind Speed 31 mph    
Max Gust Speed 41 mph    
Visibility 5 miles    
Events Rain , Snow    
Averages and records for this station are not official NWS values.
T = Trace of Precipitation, MM = Missing Value Source: NWS Daily Summary

Daily Weather History Graph

Daily Weather History Graph

Search for Another Location

Airport or City:

Trip Planner

Search our weather history database for the weather conditions in past years. The results will help you decide how hot, cold, wet, or windy it might be!

Date:

Astronomy

Mar. 27, 2014 Rise Set
Actual Time 7:11 AM CDT 7:41 PM CDT
Civil Twilight 6:43 AM CDT 8:10 PM CDT
Nautical Twilight 6:09 AM CDT 8:43 PM CDT
Astronomical Twilight 5:34 AM CDT 9:18 PM CDT
Moon 5:08 AM CDT (3/27) 4:25 PM CDT (3/27)
Length of Visible Light 13h 27m
Length of Day
12h 29m
Waning Crescent, 13% of the Moon is Illuminated
Mar 27
Waning Crescent
Mar 30
New
Apr 7
First Quarter
Apr 15
Full
Apr 22
Last Quarter

Hourly Weather History & Observations

Time (CDT) Temp. Windchill Dew Point Humidity Pressure Visibility Wind Dir Wind Speed Gust Speed Precip Events Conditions
12:46 AM 44.1 °F 35.2 °F 37.9 °F 79% 29.51 in 10.0 mi South 23.0 mph 34.5 mph N/A   Overcast
12:53 AM 44.1 °F 34.4 °F 37.9 °F 79% 29.52 in 10.0 mi South 27.6 mph 38.0 mph N/A   Overcast
1:53 AM 42.1 °F 32.8 °F 37.9 °F 85% 29.51 in 10.0 mi South 21.9 mph 31.1 mph N/A   Overcast
2:29 AM 42.1 °F 33.1 °F 37.9 °F 85% 29.50 in 7.0 mi South 20.7 mph 26.5 mph N/A   Overcast
2:53 AM 42.1 °F 33.6 °F 39.0 °F 89% 29.51 in 5.0 mi South 18.4 mph 27.6 mph N/A   Overcast
3:53 AM 41.0 °F 33.5 °F 39.0 °F 93% 29.49 in 3.0 mi South 13.8 mph - 0.00 in   Overcast
4:32 AM 41.0 °F 32.8 °F 39.0 °F 93% 29.45 in 2.5 mi South 16.1 mph - N/A   Overcast
4:53 AM 41.0 °F 32.8 °F 39.0 °F 93% 29.46 in 2.5 mi South 16.1 mph - N/A   Overcast
5:07 AM 41.0 °F 32.8 °F 39.0 °F 93% 29.45 in 3.0 mi South 16.1 mph - N/A   Overcast
5:53 AM 41.0 °F 32.8 °F 39.0 °F 93% 29.44 in 6.0 mi South 16.1 mph - N/A   Overcast
6:53 AM 41.0 °F 32.5 °F 39.0 °F 93% 29.43 in 6.0 mi South 17.3 mph - N/A   Overcast
7:53 AM 41.0 °F 33.9 °F 39.0 °F 93% 29.44 in 4.0 mi SSE 12.7 mph - N/A   Overcast
8:53 AM 41.0 °F 35.2 °F 39.0 °F 93% 29.45 in 4.0 mi SSE 9.2 mph - 0.00 in Rain Light Rain
9:06 AM 41.0 °F 34.3 °F 39.0 °F 93% 29.43 in 2.5 mi SE 11.5 mph - 0.03 in Rain Rain
9:28 AM 41.0 °F 34.7 °F 39.0 °F 93% 29.42 in 4.0 mi SSE 10.4 mph - 0.07 in Rain Light Rain
9:53 AM 41.0 °F 34.7 °F 39.0 °F 93% 29.42 in 3.0 mi SSE 10.4 mph - 0.07 in   Overcast
10:03 AM 41.0 °F 34.3 °F 39.0 °F 93% 29.40 in 2.0 mi SSE 11.5 mph - N/A   Overcast
10:10 AM 41.0 °F 34.7 °F 39.0 °F 93% 29.40 in 1.5 mi SSE 10.4 mph - N/A   Overcast
10:53 AM 41.0 °F 34.7 °F 39.9 °F 96% 29.42 in 1.5 mi SSE 10.4 mph - N/A   Overcast
11:27 AM 41.0 °F 36.4 °F 39.9 °F 96% 29.39 in 2.0 mi ESE 6.9 mph - 0.00 in Rain Light Rain
11:41 AM 41.0 °F 36.4 °F 39.9 °F 96% 29.39 in 1.5 mi ESE 6.9 mph - 0.01 in Rain Light Rain
11:53 AM 41.0 °F 36.4 °F 39.9 °F 96% 29.42 in 1.5 mi ESE 6.9 mph - 0.01 in Rain Light Rain
12:53 PM 42.1 °F 39.2 °F 39.9 °F 92% 29.39 in 1.8 mi ENE 4.6 mph - 0.01 in   Overcast
1:22 PM 42.1 °F 38.4 °F 39.9 °F 92% 29.37 in 2.0 mi ENE 5.8 mph - N/A   Overcast
1:53 PM 42.1 °F - 39.9 °F 92% 29.41 in 2.0 mi Calm Calm - N/A   Overcast
2:04 PM 42.1 °F 38.4 °F 39.9 °F 92% 29.38 in 1.8 mi North 5.8 mph - 0.00 in Rain Light Rain
2:26 PM 42.1 °F 37.7 °F 39.9 °F 92% 29.38 in 2.5 mi North 6.9 mph - 0.01 in Rain Light Rain
2:48 PM 37.4 °F 26.9 °F 35.6 °F 93% 29.38 in 5.0 mi North 20.7 mph - 0.03 in Rain Light Rain
2:53 PM 37.0 °F 26.2 °F 35.1 °F 93% 29.40 in 6.0 mi North 21.9 mph 28.8 mph 0.03 in Rain Light Rain
3:13 PM 36.0 °F 24.7 °F 33.1 °F 89% 29.39 in 9.0 mi North 21.9 mph 27.6 mph 0.01 in Rain Light Rain
3:36 PM 35.1 °F 24.1 °F 33.1 °F 92% 29.41 in 2.0 mi North 19.6 mph - 0.10 in Rain Heavy Rain
3:53 PM 35.1 °F 24.8 °F 33.1 °F 92% 29.44 in 3.0 mi North 17.3 mph - 0.15 in Rain Rain
4:53 PM 35.1 °F 23.0 °F 32.0 °F 89% 29.45 in 9.0 mi North 24.2 mph - 0.03 in   Overcast
5:53 PM 34.0 °F 20.8 °F 30.9 °F 89% 29.48 in 8.0 mi North 27.6 mph 33.4 mph 0.01 in Snow Light Snow
6:53 PM 33.1 °F 20.1 °F 28.9 °F 85% 29.55 in 8.0 mi NNW 25.3 mph 40.3 mph 0.00 in Rain Light Rain
7:53 PM 32.0 °F 17.4 °F 28.0 °F 85% 29.60 in 8.0 mi North 31.1 mph 41.4 mph 0.00 in   Overcast
8:53 PM 32.0 °F 18.6 °F 28.0 °F 85% 29.67 in 9.0 mi North 25.3 mph 35.7 mph N/A   Overcast
9:00 PM 32.0 °F 17.9 °F 28.0 °F 85% 29.64 in 10.0 mi North 28.8 mph 32.2 mph N/A   Overcast
9:53 PM 32.0 °F 19.5 °F 28.0 °F 85% 29.73 in 10.0 mi North 21.9 mph 31.1 mph N/A   Overcast
10:17 PM 33.1 °F 20.6 °F 27.0 °F 78% 29.71 in 10.0 mi NNW 23.0 mph 34.5 mph N/A   Overcast
10:53 PM 33.1 °F 21.5 °F 27.0 °F 78% 29.77 in 10.0 mi North 19.6 mph 27.6 mph N/A   Overcast
11:53 PM 32.0 °F 19.8 °F 27.0 °F 82% 29.81 in 10.0 mi North 20.7 mph - N/A   Overcast